Location: Newark
(7.0858°N, 171.3717°E)
Time: 13:06:40
(UTC+00:00)

Vanguard 1 Rocket - Pass Details

Date: 28 November 2020
Orbit: 655 x 4222 km, 34.3° (Epoch: 23 January)

Event Time Altitude Azimuth Distance (km) Brightness Sun altitude
Rises 07:49:39 0° 200° (SSW) 5,407 11.9 -22.8°
Reaches altitude 10° 07:53:57 10° 186° (S) 4,934 11.4 -23.8°
Maximum altitude 08:05:34 24° 137° (SE) 5,042 10.9 -26.5°
Enters shadow 08:13:52 19° 109° (ESE) 6,000 11.1 -28.4°
